Dati Storici

Data ora Umidita' aria (%) Temperatura aria (°C) Rad globale (W/m²) Gonioanemometro (°) Tacoanemometro (m/s) Pioggia (mm)
13-06-2020 16:10 59.4 % 25.341 -68.177 0.484 0 0
13-06-2020 16:00 61 % 25.58 -69.879 2.164 0 0
13-06-2020 15:50 59.9 % 25.141 -67.795 2.639 0 0
13-06-2020 15:40 59 % 25.324 -69.669 4.042 0 0
13-06-2020 15:30 59.2 % 25.73 -67.57 1.876 0 0
13-06-2020 15:20 60.8 % 25.866 -67.904 1.882 0 0
13-06-2020 15:10 61.8 % 25.345 -67.385 1.744 0 0
13-06-2020 15:00 61.7 % 25.324 -69.221 2.906 0 0
13-06-2020 14:50 62.7 % 25.289 -69.724 1.471 0 0
13-06-2020 14:40 66 % 25.561 -72.319 0.875 0 0
13-06-2020 14:30 65.6 % 24.895 -65.851 4.026 0 0
13-06-2020 14:20 64.9 % 24.762 -66.608 2.618 0 0
13-06-2020 14:10 65.3 % 24.933 -64.58 3.928 0 0
13-06-2020 14:00 68.1 % 24.837 -68.154 3.673 0 0
13-06-2020 13:50 67.7 % 24.606 -69.801 3.194 0 0
13-06-2020 13:40 68.6 % 24.147 -75.236 1.56 0 0
13-06-2020 13:30 67.8 % 24.84 -65.398 1.311 0 0
13-06-2020 13:20 65.7 % 24.475 -66.957 5.43 0 0
13-06-2020 13:10 62.9 % 25.007 -68.547 2.771 0 0
13-06-2020 13:00 62.4 % 25.392 -68.879 1.536 0 0

I dati sono presentati in modo automatico a scopo informativo. In seguito a verifica i dati possono subire modifiche o essere invalidati e non riportati negli archivi definitivi.